Theta_e
320 321 320 320 320 319 319 319 318 318 317 317 316 315 315 315 315 314 313 312 311 311 311 311 311 311 312 312 312 311 311 309 308 308 308 307 307 306 305 305 305 304 304 304 304 303 303 303 303 303 303 303 303 303 303 303 303 303 304 304 304 304 304 304 304 305 305 305 305 305 305 305 305 305 305 305 305 304 303 302 301 301 301 302 302 303
320 320 319 319 319 318 318 318 317 317 316 316 316 316 315 315 314 313 311 311 310 310 310 310 311 311 311 312 311 311 310 309 308 307 307 307 306 305 305 305 304 304 304 303 303 303 302 302 302 302 302 302 302 302 302 302 302 303 303 303 302 303 303 303 303 303 304 304 304 304 304 304 304 304 304 304 303 302 301 299 299 298 298 299 300 301
319 319 319 318 318 318 317 317 317 316 316 316 316 315 315 314 312 311 310 309 309 309 310 310 310 311 311 311 311 310 309 308 308 307 307 306 305 305 304 304 304 304 303 303 303 302 302 302 302 302 301 301 301 301 301 301 302 302 302 302 302 302 302 302 302 302 302 303 303 303 303 303 303 303 302 301 300 299 297 296 296 295 295 296 297 298
318 319 319 318 318 317 317 317 316 316 316 316 316 315 314 313 312 310 309 309 309 309 309 310 310 310 311 310 310 309 308 308 307 307 306 305 305 304 304 303 303 303 303 303 303 302 302 302 301 301 301 301 300 300 300 300 300 301 301 301 301 301 301 301 301 301 301 301 301 301 301 301 300 300 299 298 296 295 294 293 293 293 293 293 294 295
318 318 318 318 318 318 317 317 317 316 316 316 315 314 313 313 311 310 309 308 308 309 309 310 310 310 310 309 309 308 308 307 307 306 306 305 304 303 303 303 303 303 303 303 302 302 302 301 301 301 300 300 299 299 299 299 299 299 299 299 299 299 299 299 299 299 299 299 299 299 298 298 297 296 295 294 293 292 292 291 291 291 291 291 292 292
318 318 318 318 318 318 318 317 317 317 316 315 315 314 313 312 311 309 308 308 308 308 309 309 309 309 309 309 308 307 307 307 307 306 305 304 303 303 303 302 303 303 303 302 302 302 301 301 300 300 299 299 298 298 297 297 297 297 297 297 297 297 297 297 297 297 297 296 296 295 295 294 294 293 292 291 291 290 290 290 290 290 290 290 290 291
318 318 317 317 317 317 317 316 316 316 315 315 314 313 312 312 310 309 308 308 308 308 309 309 309 309 308 308 307 307 307 306 306 305 304 303 303 302 302 302 302 302 302 302 302 301 301 300 299 298 297 297 296 295 295 295 295 295 295 295 295 295 295 295 295 294 294 294 293 293 292 292 291 291 290 290 290 290 290 290 290 290 290 290 290 290
317 317 316 316 316 315 315 315 315 314 314 314 313 313 312 311 310 309 308 308 308 308 308 308 308 308 308 307 307 307 306 306 305 304 303 303 302 302 302 302 302 302 302 302 301 301 300 299 298 296 295 294 293 292 292 292 292 292 292 292 292 292 292 292 292 292 292 291 291 291 290 290 290 290 290 290 290 290 290 290 290 290 290 290 290 290
315 315 315 315 314 314 314 313 313 313 313 312 313 313 312 311 310 309 308 308 308 308 308 308 308 308 307 307 307 306 306 305 304 303 303 302 302 301 301 302 302 302 302 301 300 299 298 297 295 294 293 292 291 290 290 290 290 290 290 290 290 290 290 290 290 290 290 290 290 290 290 290 290 290 290 290 290 290 290 290 290 290 290 290 290 290
313 313 313 313 313 312 312 312 312 312 311 311 311 312 311 311 310 309 308 308 308 308 308 308 308 308 307 307 306 306 305 304 304 303 302 302 301 301 301 301 301 301 300 299 298 297 296 294 293 292 291 290 289 289 289 289 289 289 289 289 289 289 289 289 289 289 289 290 290 290 290 290 290 290 290 290 290 290 290 290 290 290 290 289 289 289
312 312 312 311 311 311 310 311 311 310 310 310 310 310 310 310 309 308 308 308 308 308 308 308 307 307 307 307 306 305 304 303 303 302 302 301 301 301 301 301 300 300 298 297 296 294 293 292 291 290 290 289 289 289 289 289 289 289 289 289 289 289 289 289 289 289 289 289 290 290 290 290 290 290 290 290 290 290 290 290 290 289 289 289 289 289
310 310 310 310 310 309 309 309 309 309 309 309 309 309 309 309 309 308 308 307 308 308 308 308 307 307 306 306 305 304 303 303 302 301 301 301 300 300 300 299 299 298 296 295 293 292 291 290 290 289 289 289 289 289 289 289 289 289 289 289 289 289 289 289 289 289 289 289 290 290 290 290 290 290 290 290 290 290 290 290 290 289 289 289 289 289
309 309 309 309 309 308 308 308 308 308 308 309 309 309 309 309 309 308 308 307 307 307 307 307 306 306 305 305 304 303 302 302 302 301 301 300 300 299 299 298 296 295 294 292 291 291 290 289 289 289 289 288 288 289 289 289 289 289 289 289 289 289 289 289 289 289 289 289 290 290 290 290 290 290 290 290 290 290 290 290 290 289 289 289 289 289
309 309 309 308 308 307 307 307 308 308 308 308 309 309 309 309 309 308 308 307 307 306 306 306 305 305 304 303 303 302 301 301 301 300 300 299 299 298 297 296 294 293 292 291 290 290 289 289 289 289 288 288 289 289 289 289 289 289 289 289 289 289 289 289 289 289 289 290 290 290 290 290 290 290 290 290 290 290 290 290 290 289 289 289 289 289
309 308 307 307 307 307 307 307 307 307 308 308 308 308 309 309 308 308 307 306 306 306 305 305 304 304 303 303 302 301 301 301 300 300 299 298 298 297 296 294 293 292 291 290 290 289 289 289 288 288 288 289 289 289 289 289 289 289 289 289 289 289 289 289 289 289 289 290 290 290 290 290 290 290 290 290 290 290 290 290 290 289 289 289 289 289
308 307 306 306 307 307 307 306 306 307 307 307 307 308 308 308 307 307 306 306 305 305 305 304 304 303 302 302 301 301 301 300 300 299 298 297 296 295 294 293 291 290 290 289 289 289 289 288 288 288 289 289 289 289 289 288 288 289 289 289 289 289 289 289 289 289 289 289 289 289 289 289 290 290 290 290 290 290 290 290 289 289 289 289 289 289
308 307 306 305 306 306 306 306 306 305 306 306 307 307 308 307 307 306 306 305 305 304 304 304 303 303 302 301 301 301 300 300 299 298 297 296 295 294 292 291 290 290 289 289 289 289 288 288 288 288 289 289 289 288 288 288 288 289 289 289 289 289 289 289 289 289 289 289 289 289 289 289 289 290 290 290 290 290 289 290 290 289 289 289 289 289
307 306 306 305 305 305 305 305 304 304 305 305 306 307 307 307 306 305 305 304 304 304 304 304 303 303 302 302 301 300 300 299 298 297 295 294 293 292 291 291 290 290 289 289 289 289 288 288 288 289 289 288 288 288 288 288 288 289 289 289 289 289 289 289 289 289 289 289 289 289 289 289 289 290 290 290 290 290 290 290 290 290 290 290 289 289
306 305 305 305 304 304 304 304 303 304 304 304 305 306 306 305 305 304 304 303 303 303 303 303 303 302 302 301 301 300 299 298 296 295 293 292 292 291 291 290 290 289 289 289 289 288 288 288 288 288 288 288 288 288 288 288 288 289 289 289 288 288 288 289 289 289 289 289 289 289 289 290 290 290 290 290 290 290 290 290 290 290 290 290 290 290
305 304 304 304 303 303 303 303 303 303 303 304 304 305 305 304 304 303 303 302 302 302 302 302 302 301 301 300 300 299 297 296 294 293 292 291 290 290 290 290 289 289 289 289 288 288 288 288 288 288 288 288 288 288 288 288 288 289 289 289 288 288 288 288 289 289 289 289 289 289 289 290 290 290 290 290 290 290 290 290 290 290 290 290 290 290
305 304 304 304 304 303 303 303 303 303 303 303 303 304 304 303 303 302 302 302 302 302 301 301 300 300 300 299 298 297 295 294 293 292 291 290 290 289 289 289 289 288 288 288 288 288 288 288 288 288 288 288 288 288 288 288 288 289 288 288 288 288 288 289 289 289 289 289 289 289 290 290 290 290 290 290 290 290 290 290 290 290 290 290 290 290
305 305 304 304 304 303 303 303 303 302 302 303 303 303 303 302 302 302 302 302 301 301 301 300 300 299 299 297 296 295 293 292 291 290 290 290 289 289 289 288 288 288 288 288 288 288 288 288 288 288 288 288 288 288 288 288 288 288 289 288 288 288 289 289 289 289 289 289 289 289 290 290 290 290 290 290 290 290 290 290 290 290 290 290 290 290
304 304 304 304 304 303 303 303 302 302 302 302 302 302 302 302 302 301 301 301 301 300 300 299 298 298 297 295 294 293 291 290 290 289 289 289 289 288 288 288 288 288 288 288 288 288 288 288 288 288 288 288 288 288 288 288 288 288 288 288 288 289 289 289 289 289 289 289 290 290 290 290 290 290 290 290 290 290 290 290 290 290 290 290 290 290
303 303 304 304 304 304 303 303 303 303 302 302 302 301 301 301 301 300 300 299 299 298 298 297 296 295 294 293 291 290 290 289 289 288 288 288 288 288 288 288 288 287 287 287 288 288 288 288 288 288 288 288 288 288 288 288 288 288 288 288 289 289 289 289 289 289 289 289 290 290 290 290 290 290 290 290 290 290 290 290 290 290 290 290 290 290
302 302 302 303 303 303 303 303 303 303 302 302 301 301 301 300 300 299 298 297 297 296 295 294 293 293 292 291 290 289 289 288 288 288 288 288 287 287 287 287 287 287 287 287 288 288 288 288 288 288 288 288 288 288 288 288 288 288 288 288 288 289 289 289 289 289 289 289 290 290 290 290 290 290 290 290 290 290 290 290 290 290 290 290 290 290
301 301 301 301 301 301 301 301 301 301 301 301 300 300 299 299 298 297 296 295 294 293 293 292 291 291 290 290 289 289 288 288 288 287 287 287 287 287 287 287 287 287 287 287 288 288 288 288 288 288 288 288 288 288 288 288 288 289 289 289 289 289 289 289 289 289 289 289 289 290 290 290 290 290 290 290 290 290 290 290 290 290 290 290 290 290
301 300 300 300 300 299 299 299 299 298 298 298 298 297 297 296 295 294 293 292 292 291 291 290 290 289 289 289 288 288 288 288 287 287 287 287 287 287 287 287 287 287 287 287 287 288 288 288 288 288 288 288 288 288 288 288 289 289 289 289 288 288 288 289 289 289 289 289 289 290 290 290 290 290 290 290 290 290 290 290 290 290 290 290 290 290
299 298 298 298 297 297 296 296 295 295 295 295 294 294 293 292 292 292 291 291 290 290 290 289 289 289 288 288 288 288 288 287 287 287 287 287 287 287 287 287 287 287 287 287 287 287 288 288 288 288 288 288 288 288 288 288 288 289 289 289 289 288 288 288 289 289 289 289 289 289 290 290 290 290 290 290 290 290 290 290 290 290 290 290 290 290
295 295 295 294 294 294 293 293 293 292 292 292 291 291 290 290 290 290 290 289 289 289 289 288 288 288 288 288 288 288 287 287 287 287 287 287 287 287 287 287 287 287 287 287 287 287 288 288 288 288 288 288 288 288 288 288 288 289 288 288 288 288 288 288 288 288 289 289 289 289 289 290 290 290 290 290 290 290 290 290 290 290 290 290 290 290
292 292 292 291 291 291 291 291 290 290 290 290 290 289 289 289 289 289 289 289 288 288 288 288 288 288 288 287 287 287 287 287 287 287 287 287 287 287 287 287 287 287 287 287 287 287 288 288 288 289 288 289 289 289 289 289 289 288 288 288 288 288 288 288 288 288 288 289 289 289 289 289 289 290 289 289 289 290 290 290 290 290 290 290 290 290
289 289 289 289 289 289 289 289 289 289 289 289 289 289 289 288 288 288 288 288 288 288 288 288 287 287 287 287 287 288 288 288 287 287 287 287 287 287 287 287 287 287 287 287 287 287 287 288 289 289 289 289 289 289 289 289 289 288 288 288 288 288 288 288 288 288 288 288 288 289 289 289 289 289 289 289 289 289 289 290 290 290 290 290 290 290
288 288 288 288 288 288 288 288 288 288 288 288 288 288 288 288 288 288 288 288 288 288 288 287 287 287 287 287 287 288 288 288 288 288 287 288 288 288 288 288 288 287 288 287 288 288 288 288 289 289 289 289 289 289 289 289 289 288 288 288 288 288 288 288 288 288 288 288 288 288 289 289 289 289 289 289 289 289 289 289 289 290 290 290 290 290
288 288 288 288 288 288 288 288 288 288 288 288 288 288 288 287 287 287 287 287 287 287 287 287 287 287 287 287 287 288 288 288 288 288 288 288 288 288 288 288 288 288 288 288 288 288 288 288 288 289 289 289 289 288 288 288 288 288 288 288 288 288 288 288 288 288 288 288 288 288 288 289 289 289 289 289 289 289 289 289 289 289 290 290 290 290
288 288 288 288 288 288 287 287 287 287 287 287 287 287 287 287 287 287 287 287 287 287 287 287 287 287 287 287 287 287 288 287 288 288 288 288 288 288 288 288 288 288 288 288 288 288 288 288 288 288 288 288 288 288 288 288 288 288 288 288 288 288 288 288 288 288 288 288 288 288 288 288 288 288 288 289 289 289 289 289 289 289 290 290 290 290
288 288 288 288 288 288 288 287 287 287 287 287 287 287 287 287 287 287 287 287 287 287 287 287 287 287 287 287 287 287 287 287 288 288 288 288 288 288 288 288 288 288 288 288 288 288 288 288 288 288 288 287 287 288 288 288 288 288 288 288 288 288 288 288 288 288 288 288 288 288 288 288 288 288 288 288 288 288 289 289 289 289 289 290 290 290
288 288 288 288 288 287 287 287 287 287 287 287 286 286 287 287 287 287 287 287 287 287 287 287 287 287 287 287 287 287 287 287 287 288 288 288 288 288 288 288 288 288 288 288 288 288 288 288 288 288 288 287 287 287 287 288 288 288 288 288 288 288 287 287 287 287 287 287 288 288 288 288 288 288 288 288 288 288 288 289 289 289 289 290 290 290
288 288 288 288 287 287 287 287 287 287 286 286 286 286 286 287 287 287 287 287 287 287 287 287 287 287 287 287 287 287 288 288 288 288 288 288 288 288 288 288 288 288 288 288 288 288 288 288 288 288 287 287 287 287 287 287 287 287 287 287 287 287 287 287 287 287 287 287 287 287 287 287 287 287 287 287 287 288 288 288 289 289 289 289 290 290
287 287 287 287 287 287 287 287 287 286 286 286 286 286 286 287 287 287 287 287 287 287 287 287 287 287 287 287 287 287 288 288 288 288 288 288 288 288 288 288 288 289 289 289 289 289 288 288 288 288 288 287 287 287 287 287 287 287 287 287 287 287 287 287 287 287 287 287 287 287 287 287 287 287 287 287 287 288 288 288 289 289 289 289 290 290
287 287 287 287 287 287 287 287 287 287 287 287 287 287 287 287 287 287 287 287 287 287 287 287 287 287 287 287 287 287 287 287 288 288 288 288 288 288 288 288 288 288 289 289 289 289 289 289 288 288 288 288 287 287 287 287 286 286 286 287 287 287 287 287 287 287 287 287 287 287 287 287 287 287 287 287 287 288 288 288 289 289 289 289 289 290
286 286 286 286 287 287 287 287 287 287 287 287 287 287 287 287 287 287 287 287 287 287 287 287 287 287 287 287 287 287 287 287 287 287 288 288 288 288 288 288 288 288 289 289 289 289 289 289 289 288 288 288 288 287 287 287 287 286 286 286 286 286 286 287 287 287 288 287 287 287 287 287 287 287 287 287 287 288 288 288 288 289 289 289 289 289
286 286 286 286 287 287 287 287 287 288 288 288 288 288 288 288 288 288 288 288 288 288 288 288 288 288 288 288 288 288 288 288 288 288 288 288 288 288 288 288 288 288 289 289 289 289 288 289 288 288 288 288 288 288 288 287 287 287 287 287 286 286 286 286 287 287 287 287 287 287 287 287 287 287 287 287 287 287 288 288 288 289 289 289 289 289
286 286 287 287 287 287 287 288 288 288 288 288 288 288 288 288 288 288 288 288 288 288 288 288 288 288 288 288 288 288 288 288 288 289 289 289 289 289 289 289 289 289 289 289 289 288 288 288 288 288 288 288 289 289 289 288 288 288 288 288 287 287 287 287 287 287 287 287 287 287 287 287 287 287 287 287 287 287 288 288 288 288 289 289 289 289
287 287 287 287 287 287 288 288 288 288 288 288 288 288 288 288 288 288 288 288 288 288 288 288 288 288 288 288 288 288 288 289 289 289 289 289 289 289 289 289 289 289 289 289 289 289 289 289 289 289 289 289 289 289 289 289 288 288 288 288 288 288 288 287 287 287 287 287 287 287 287 287 287 287 287 287 287 287 287 288 288 288 288 289 289 289
287 287 287 287 287 288 288 288 288 288 288 288 288 288 288 288 288 288 288 288 288 288 288 288 288 288 288 288 288 288 288 288 288 288 288 289 289 289 289 289 289 289 289 289 289 289 289 289 289 289 289 289 289 290 290 289 289 288 287 287 288 288 288 287 287 287 287 287 287 287 287 287 287 287 287 287 287 287 287 288 288 288 288 289 289 289
287 287 287 287 287 287 288 288 288 288 288 288 288 288 288 288 288 288 288 288 288 288 288 288 288 288 287 287 287 288 288 288 288 288 288 288 288 288 288 288 288 288 288 288 288 289 289 289 289 289 289 289 290 290 290 289 289 288 288 287 288 288 288 288 287 287 287 287 286 287 287 287 287 287 287 287 287 287 287 288 288 288 288 288 289 289
287 287 287 287 287 287 287 288 288 288 288 288 288 288 288 288 288 288 288 288 288 288 288 288 288 288 287 287 287 287 288 288 288 288 288 288 288 288 288 288 288 288 288 288 288 288 289 289 289 289 289 290 290 290 290 290 289 289 289 288 288 288 288 287 287 286 286 286 286 286 287 287 287 287 287 287 287 287 287 287 288 288 288 288 289 289
287 287 287 287 287 288 288 288 288 288 288 288 288 288 288 289 289 288 288 288 288 288 288 288 288 287 287 287 287 287 287 287 288 288 288 288 288 288 288 288 288 288 288 288 289 289 289 290 290 290 291 291 291 291 290 290 290 290 290 289 289 288 288 287 286 286 286 286 286 286 286 286 286 286 287 287 287 287 287 287 288 288 288 288 289 289
288 287 287 287 288 288 288 288 288 288 288 289 289 289 289 289 289 289 289 289 289 288 288 288 288 288 287 287 287 287 287 287 288 288 288 288 288 288 288 288 288 289 289 289 290 290 291 291 291 291 291 291 291 291 291 290 290 290 290 290 289 289 288 287 286 286 286 286 286 286 286 286 286 286 286 287 287 287 287 287 288 288 288 288 289 289
288 288 288 288 288 288 288 288 289 289 289 289 289 290 289 290 289 289 289 289 289 289 289 288 288 288 288 288 288 288 288 288 288 288 288 288 288 289 289 289 289 290 290 291 291 292 292 292 292 292 291 291 291 291 291 291 290 290 290 290 289 289 288 287 286 286 286 286 286 286 286 286 286 286 286 287 287 287 287 287 288 288 288 288 289 289
288 288 288 288 288 288 288 289 289 289 289 289 290 290 290 290 290 290 290 289 289 289 289 289 289 289 289 288 288 288 289 288 288 288 289 289 289 289 289 290 290 291 291 292 292 293 293 293 293 292 291 291 291 291 291 291 290 290 290 289 289 288 287 287 286 286 286 286 286 286 286 286 286 286 286 286 287 287 287 287 287 288 288 288 288 288
288 288 288 288 289 289 289 289 289 289 289 290 290 290 290 290 290 290 290 290 290 289 289 289 289 289 289 289 289 289 289 289 289 289 289 289 289 289 290 290 291 291 292 292 293 293 293 293 293 292 291 290 290 290 290 290 290 290 289 289 288 287 287 287 286 286 286 286 286 286 286 286 286 286 286 286 287 287 287 287 287 287 288 288 288 288
Wind_Speed
27 26 25 23 22 20 19 18 18 18 17 17 17 17 19 21 23 24 24 24 23 22 21 20 19 18 18 17 18 18 18 18 18 18 17 16 15 13 11 11 11 11 11 11 11 10 10 10 10 11 12 13 13 14 15 15 16 16 17 17 17 17 18 18 19 19 20 20 20 20 20 19 18 17 17 18 19 19 19 18 16 14 13 13 12 12
23 21 20 19 18 17 17 16 16 15 15 15 16 17 19 21 23 24 23 22 21 20 20 19 18 17 17 17 17 18 18 18 17 17 17 16 14 13 11 10 10 11 11 10 10 10 10 10 10 10 11 11 12 12 13 13 13 14 14 14 15 15 15 16 16 17 17 17 17 18 18 17 17 17 18 19 19 20 20 18 16 15 15 14 14 13
18 16 16 15 15 15 14 13 13 13 14 14 16 18 19 21 22 22 21 21 20 19 18 18 17 17 17 17 17 17 17 17 17 17 16 15 14 12 11 11 11 11 11 10 10 10 10 10 10 10 11 11 12 12 13 13 13 13 13 14 14 14 15 15 15 16 16 16 16 17 17 17 17 18 18 19 19 19 19 18 16 15 15 15 14 14
15 15 15 14 14 14 14 13 14 14 14 15 16 18 19 20 20 20 20 19 19 18 18 17 16 16 16 16 17 17 16 16 16 16 16 15 13 12 11 11 11 11 11 11 10 10 10 10 11 11 12 13 13 14 14 14 14 14 14 15 15 15 15 16 16 16 16 16 17 17 17 18 18 18 18 18 18 18 17 17 16 15 14 14 14 14
15 15 16 15 16 16 15 15 15 15 15 16 17 17 18 18 19 19 19 19 19 18 18 17 16 16 16 16 16 16 16 16 16 16 15 14 13 12 11 11 12 12 12 11 11 11 11 11 12 13 14 14 15 15 15 15 15 15 16 16 16 16 17 17 17 17 17 17 17 17 17 18 17 17 17 17 16 16 16 15 15 14 13 13 13 13
16 16 16 16 16 16 16 15 15 15 15 16 16 16 17 17 18 18 19 19 19 19 18 17 16 16 16 16 16 16 16 16 16 15 14 13 12 12 11 12 12 12 12 12 12 12 12 13 14 14 15 16 16 16 16 16 16 16 16 16 17 17 17 18 18 18 18 17 17 17 17 17 16 16 16 15 15 14 14 14 13 13 13 12 12 12
16 15 15 15 15 15 14 14 15 15 14 14 14 15 16 17 18 19 20 20 20 20 18 17 16 16 15 16 16 16 16 16 15 14 13 12 12 12 12 12 13 13 13 13 13 13 13 14 15 16 16 16 16 15 15 15 15 15 16 16 17 17 17 17 17 17 17 17 16 16 15 15 15 14 14 14 13 13 13 13 12 12 12 12 12 12
17 17 16 16 15 15 14 15 15 14 14 13 14 15 16 17 18 19 20 21 21 20 18 17 16 15 15 16 16 16 16 16 15 14 13 12 12 12 12 12 13 13 13 14 14 14 15 15 15 16 15 15 14 14 13 14 14 14 15 15 16 16 16 16 16 16 16 15 15 14 14 13 13 13 12 12 12 12 12 12 12 12 12 12 12 11
19 19 19 18 17 16 16 16 16 15 14 14 14 15 16 17 19 20 21 22 21 20 18 17 16 16 16 16 16 16 16 15 14 13 13 12 12 12 12 13 13 14 14 14 15 15 15 15 15 15 14 13 13 12 12 12 12 13 13 14 14 14 14 14 14 14 14 14 13 13 12 12 12 12 11 11 11 11 11 11 11 11 12 12 11 11
20 20 20 19 19 18 17 16 16 16 15 14 14 15 16 18 19 20 21 22 22 20 18 17 17 17 17 17 16 16 15 15 14 13 13 13 12 12 12 13 13 14 15 15 15 15 15 15 14 14 13 12 11 11 11 11 11 11 12 12 12 12 13 13 13 13 12 12 12 11 11 11 11 11 10 10 10 10 11 11 11 11 11 11 11 11
21 21 20 20 20 19 18 17 16 16 15 15 15 15 17 18 20 21 22 22 21 20 18 17 17 17 18 17 16 16 15 14 14 13 13 13 12 12 12 13 14 15 15 15 15 15 14 14 14 13 12 11 10 10 9 10 10 10 10 10 11 11 11 11 11 11 11 11 11 10 10 10 10 10 10 10 10 10 10 10 10 11 11 11 11 11
21 21 20 20 21 20 19 17 16 16 16 16 17 18 19 20 20 21 22 22 21 20 18 17 17 17 17 17 16 15 14 14 13 13 13 13 12 12 13 14 14 15 15 15 14 14 14 13 13 12 11 10 9 9 8 8 9 9 9 9 9 9 9 9 10 10 10 10 10 10 9 9 9 9 9 9 9 9 9 10 10 10 10 10 11 11
22 21 21 21 21 21 20 18 17 18 18 19 19 20 21 20 20 21 22 21 21 19 18 17 17 17 17 16 15 15 14 14 13 13 13 13 13 13 13 14 14 15 14 14 13 13 13 12 12 11 9 9 8 7 7 7 8 8 8 8 8 8 8 8 9 9 9 9 9 9 9 9 9 9 9 8 8 9 9 9 9 9 10 10 10 11
22 22 21 21 21 22 21 19 19 20 20 20 20 20 20 19 20 21 21 21 20 19 17 17 16 16 16 16 15 15 14 14 13 13 13 13 13 13 14 14 14 14 14 13 13 12 12 12 11 10 8 8 7 7 6 7 7 7 7 7 7 7 7 7 8 8 8 8 8 8 8 8 8 8 8 8 8 8 8 8 8 9 9 10 10 10
23 22 22 22 23 23 22 21 20 20 21 20 19 19 19 20 21 21 21 21 20 18 17 17 16 16 16 16 15 15 14 14 14 13 13 13 13 14 14 14 14 14 13 12 12 12 12 11 10 9 8 7 6 6 6 6 6 6 6 6 6 6 6 7 7 7 8 8 8 7 7 7 7 7 7 7 7 7 7 7 7 8 8 9 9 10
23 22 22 23 24 24 23 21 21 21 21 20 19 19 19 20 21 21 21 20 19 18 18 17 17 17 16 16 15 15 14 14 14 13 13 13 14 14 14 14 13 13 13 12 12 12 11 10 9 8 7 7 6 6 6 6 6 6 6 6 6 6 6 6 7 7 7 7 7 7 7 7 6 6 6 6 6 6 6 6 6 7 7 8 8 9
21 21 21 21 22 23 22 21 20 21 21 20 19 19 19 20 20 20 19 19 19 19 19 18 18 17 16 16 15 15 14 14 14 13 13 13 14 14 14 13 13 12 12 12 12 11 11 10 9 8 7 7 6 6 6 6 6 6 6 5 5 5 6 6 6 7 6 6 6 6 6 6 6 5 5 5 5 5 5 5 5 6 6 6 7 7
19 18 18 18 18 19 19 19 20 21 21 20 20 20 19 20 20 19 19 18 19 19 19 19 18 17 16 15 15 15 13 13 13 14 13 13 14 14 13 13 13 12 12 12 11 11 10 9 8 8 7 6 6 6 6 6 6 6 5 5 5 5 6 6 6 6 6 6 6 6 5 5 5 5 4 4 4 4 4 4 4 5 5 5 6 6
16 16 15 15 15 15 15 16 17 19 20 20 20 20 20 20 20 19 19 19 19 19 18 17 16 15 14 13 13 13 13 13 13 14 13 13 13 13 13 13 12 12 12 11 11 10 10 9 8 7 7 6 6 6 6 6 6 5 5 5 5 5 6 6 6 6 6 6 5 5 5 5 4 4 4 4 4 4 4 4 4 4 4 5 5 5
14 14 13 13 13 13 13 14 15 16 17 18 18 19 20 20 20 19 19 19 19 18 17 16 15 14 13 12 12 13 13 14 14 13 13 13 13 12 12 12 12 12 11 10 10 9 9 8 7 7 6 6 6 6 6 6 5 5 5 5 5 5 6 6 6 6 6 5 5 5 5 4 4 4 4 4 4 4 4 4 4 4 4 4 5 5
13 13 12 12 12 12 13 13 13 14 15 16 17 18 19 20 20 19 19 18 18 17 16 15 14 14 13 12 12 13 14 14 13 13 13 13 12 12 12 12 12 11 10 9 9 8 8 7 7 6 6 6 6 5 5 5 5 5 5 5 5 5 6 6 6 6 6 5 5 5 4 4 4 4 4 4 4 4 4 4 4 4 5 5 5 5
12 12 11 11 12 12 12 12 13 14 15 16 17 17 18 19 19 19 18 17 17 16 15 14 14 14 13 13 13 14 14 14 13 13 12 12 11 11 11 11 11 10 9 9 8 8 7 7 6 6 5 5 5 5 5 5 5 5 5 5 5 5 6 6 6 6 6 5 5 5 4 4 4 4 4 4 4 4 4 4 4 5 5 5 5 5
10 11 11 12 12 12 13 14 15 16 16 17 17 17 17 17 17 16 15 15 15 15 14 14 14 14 14 14 14 14 14 13 13 12 12 11 11 11 11 11 10 9 8 8 8 7 7 6 6 6 5 5 5 5 5 5 5 5 5 5 5 5 6 6 6 6 6 5 5 5 5 5 4 4 4 4 5 5 5 5 5 5 5 5 6 6
9 10 11 11 12 12 13 14 15 16 17 17 17 16 16 16 15 14 14 14 14 14 15 14 14 15 14 14 14 14 13 12 11 11 11 11 11 11 11 10 10 9 8 7 7 7 6 6 5 5 5 5 5 5 5 5 5 5 5 5 5 5 6 6 6 6 6 6 6 5 5 5 5 5 5 5 5 5 5 6 6 6 6 6 6 6
10 10 10 10 10 11 12 12 13 14 15 16 16 16 16 16 16 15 15 15 15 15 15 15 15 15 15 14 13 13 12 11 11 11 10 10 10 10 10 10 9 8 8 7 7 6 6 6 5 5 5 5 5 5 5 5 5 5 5 5 5 5 6 6 6 6 6 6 6 6 6 6 6 5 5 5 5 6 6 6 6 7 7 7 7 7
10 10 10 10 10 10 11 11 12 13 13 14 15 15 16 16 16 15 15 15 15 15 15 15 15 14 14 13 13 12 11 10 10 10 10 10 10 10 10 9 9 8 7 7 6 6 6 5 5 5 5 5 5 5 5 5 5 5 5 5 5 5 6 6 6 6 6 6 6 6 6 6 6 6 6 6 6 6 6 7 7 7 7 7 7 7
11 11 11 11 11 11 11 12 12 12 13 13 14 14 14 15 15 15 15 15 14 14 14 14 14 14 13 12 12 11 10 10 10 10 10 10 10 9 9 9 8 8 7 7 6 6 5 5 5 5 5 5 5 5 5 5 5 5 5 5 5 5 6 6 6 6 7 7 7 7 7 7 7 6 6 6 6 7 7 7 7 8 8 8 8 8
12 12 12 12 12 12 12 12 12 13 13 13 14 14 14 14 14 14 14 13 13 13 13 13 13 13 12 12 11 10 10 10 10 10 10 9 9 9 9 8 8 7 7 6 6 5 5 5 5 5 5 5 5 5 5 5 5 5 5 5 5 6 6 6 7 7 7 7 8 8 8 7 7 7 7 7 7 7 7 8 8 8 8 8 8 8
13 13 13 13 13 13 13 13 13 13 13 13 13 13 13 13 13 13 12 12 12 12 13 12 12 12 11 11 10 10 10 10 10 10 10 9 9 9 8 8 8 7 6 6 6 5 5 5 5 5 5 5 6 6 6 6 6 6 6 6 6 6 7 7 7 8 8 8 8 8 8 8 8 8 7 7 7 8 8 8 9 9 9 8 8 9
12 13 13 13 13 13 13 13 13 13 13 13 13 12 12 12 12 12 12 13 13 12 12 12 12 11 11 11 11 11 10 10 10 10 9 9 9 9 8 8 8 7 6 6 6 6 6 6 6 5 6 6 6 6 6 6 6 6 7 7 7 7 7 8 8 8 9 9 9 9 9 9 9 8 8 8 8 8 9 9 9 9 9 9 9 9
12 12 12 12 12 12 13 13 13 13 12 12 12 11 11 12 12 13 13 13 12 12 12 11 11 11 11 11 11 11 11 10 10 9 9 9 9 9 8 8 8 7 7 7 7 7 7 6 6 6 6 6 6 6 6 6 7 7 7 7 8 8 8 8 9 9 9 10 10 10 10 10 10 9 9 9 9 9 9 10 10 10 10 10 10 9
12 11 11 12 12 12 12 12 12 12 11 11 11 11 12 12 12 13 13 12 12 12 11 11 11 11 11 11 11 10 10 9 9 9 9 9 9 9 8 8 8 8 8 8 7 7 7 7 7 6 6 6 6 6 7 7 7 7 8 8 8 9 9 9 9 10 10 10 11 11 11 11 11 10 10 10 10 10 10 10 11 11 11 11 10 10
12 12 12 12 12 12 12 12 12 11 11 11 12 12 12 12 12 13 12 12 12 11 11 11 11 11 11 11 10 10 9 9 9 9 9 9 9 8 8 8 9 9 8 8 8 8 8 8 7 7 7 7 7 7 7 8 8 8 8 9 9 9 9 10 10 11 11 11 11 12 12 12 12 11 11 11 11 11 11 11 11 11 11 11 11 11
12 12 12 13 13 12 12 12 12 12 12 12 12 12 12 12 12 12 12 12 11 11 11 11 11 11 11 11 10 10 9 9 9 9 8 8 8 8 8 8 8 8 9 9 9 9 9 9 9 8 8 8 8 8 8 8 9 9 9 10 10 10 10 11 11 11 12 12 12 13 13 13 13 13 13 12 12 12 12 12 12 12 12 12 12 11
12 12 13 13 12 12 12 12 11 11 11 11 11 11 12 12 12 11 11 11 11 11 10 10 10 10 10 10 10 10 9 9 9 8 8 8 8 8 8 8 8 9 9 9 9 9 9 10 10 9 9 9 9 9 9 9 9 10 10 10 11 11 11 11 12 12 13 13 14 14 14 14 14 14 14 14 14 14 13 13 13 13 13 13 13 12
12 12 12 12 12 12 11 11 10 10 10 10 11 11 11 11 11 11 11 10 10 10 10 10 10 10 10 9 9 9 9 9 9 9 9 9 9 8 9 9 9 9 9 9 10 10 10 10 10 10 10 10 10 9 9 9 10 10 11 11 12 12 12 12 13 13 14 14 15 15 15 15 15 15 15 15 15 14 14 14 14 14 14 14 13 13
12 12 12 12 11 11 11 10 10 10 10 10 10 10 10 10 10 10 10 10 10 10 10 10 10 10 9 9 9 9 9 9 9 9 9 9 9 9 9 9 10 10 10 10 10 10 10 10 10 10 10 10 10 10 9 10 10 11 12 12 12 13 13 13 14 14 15 16 16 16 16 16 15 15 15 15 15 15 15 15 15 14 14 14 14 13
12 11 11 11 11 10 10 10 10 10 10 11 11 11 10 10 10 10 9 9 9 9 9 9 9 9 9 9 8 8 9 9 9 9 10 10 10 10 10 10 10 10 10 10 10 10 10 10 9 9 9 9 9 9 10 10 11 12 12 12 12 13 13 14 15 15 16 16 17 17 16 16 16 16 16 15 15 15 15 15 15 15 15 14 14 14
11 10 10 10 10 10 10 10 10 10 10 11 11 11 11 10 10 10 9 9 9 9 8 8 8 8 8 8 8 8 8 9 9 9 9 10 10 10 10 10 10 10 10 10 10 10 10 10 10 9 9 9 9 9 10 10 11 11 12 12 13 13 14 14 15 16 16 17 17 17 17 17 17 16 16 16 15 15 15 15 15 15 15 15 15 14
11 10 10 10 10 10 10 10 10 10 10 10 10 10 10 10 10 9 9 9 9 8 8 8 8 8 8 8 8 8 8 8 8 9 9 9 9 10 10 10 10 10 10 10 10 10 10 10 10 10 10 10 9 9 9 10 10 10 11 12 12 13 14 15 15 16 16 16 17 17 17 17 17 17 16 16 15 15 15 15 15 15 15 15 14 14
11 10 10 10 10 10 10 10 10 10 10 10 10 9 9 9 9 8 8 8 8 8 8 7 7 7 7 7 7 7 7 8 8 8 8 8 9 9 9 9 9 9 9 9 10 10 10 10 10 10 10 10 10 10 9 9 9 10 10 11 11 12 13 14 15 16 16 16 17 17 17 17 17 17 16 16 15 15 15 15 15 15 15 15 15 15
11 11 11 11 11 11 11 10 10 10 10 9 9 9 8 8 7 7 7 6 6 6 6 6 6 6 6 7 7 7 7 7 7 7 7 8 8 8 8 9 9 9 9 9 9 9 9 10 10 10 10 10 10 10 9 9 9 9 9 10 11 11 13 14 15 15 15 16 17 17 17 18 18 17 17 16 16 15 15 15 15 15 15 15 15 15
12 12 12 12 11 11 11 11 10 10 10 9 8 8 8 7 7 6 6 6 5 5 5 5 6 6 6 6 7 7 7 7 7 7 7 7 7 7 7 8 8 8 8 8 9 9 9 9 9 10 10 10 10 9 9 8 8 8 9 10 11 11 12 13 14 15 15 16 17 17 17 18 18 18 17 17 16 16 15 15 15 15 15 16 16 16
13 13 13 12 12 12 11 11 10 10 9 9 8 8 7 7 6 6 5 5 5 5 5 5 5 5 5 6 6 7 7 7 7 7 7 7 7 7 7 7 7 7 8 8 8 8 9 9 9 9 9 9 9 9 9 8 8 8 9 10 11 12 12 13 14 15 15 16 17 17 18 18 18 18 17 17 16 16 16 15 15 16 16 16 16 16
13 13 13 13 12 12 12 11 11 10 10 9 8 8 7 7 6 6 6 5 5 5 5 4 5 5 5 5 6 6 6 7 7 7 7 7 7 7 7 7 7 7 7 8 8 8 8 8 8 8 8 8 8 8 8 8 9 9 9 11 11 12 13 14 14 15 15 16 17 17 18 18 18 18 18 17 17 16 16 16 16 16 16 16 17 17
14 14 14 13 13 12 12 12 11 10 10 9 9 8 7 7 6 6 5 5 5 4 4 4 4 4 4 5 5 6 6 6 7 6 6 6 6 7 7 7 7 7 7 7 7 7 7 7 7 7 7 7 8 8 9 9 10 10 11 12 12 13 13 14 14 14 15 16 16 17 17 17 17 17 18 18 17 17 16 16 16 16 16 16 17 17
15 15 14 14 14 13 12 12 11 10 10 9 8 8 7 6 6 5 5 4 4 4 3 3 3 4 4 5 5 6 6 6 6 6 6 6 6 7 7 7 7 7 7 7 7 6 7 7 7 7 7 8 8 9 9 10 11 12 12 13 13 13 13 13 13 14 15 15 16 16 17 16 17 17 17 17 17 17 16 16 16 16 16 16 16 16
16 15 15 15 14 13 12 12 11 10 9 8 7 7 6 5 5 4 4 4 3 3 3 3 3 3 4 5 5 6 6 6 7 7 6 6 7 7 7 7 7 7 7 7 6 6 6 7 7 8 8 9 10 10 11 11 12 12 13 13 13 13 12 12 13 14 14 15 15 15 16 16 16 17 17 17 16 16 16 16 16 16 16 16 16 16
16 16 15 15 14 13 12 11 10 9 8 8 7 6 6 5 5 4 4 4 4 4 3 3 3 4 4 5 5 6 6 7 7 7 7 7 7 7 7 7 7 7 7 7 7 7 8 8 9 9 10 10 11 12 12 12 13 13 13 13 12 12 11 12 12 13 14 14 14 15 15 15 15 16 16 16 16 16 15 15 15 15 16 15 15 15
16 16 15 14 13 12 11 11 10 9 8 7 7 6 6 5 5 5 5 4 4 4 4 4 4 4 5 5 6 6 7 7 8 8 8 8 8 7 7 7 7 7 7 7 8 9 9 10 11 11 12 12 12 12 13 13 13 13 13 12 12 11 11 11 12 13 13 13 14 14 14 14 14 15 15 16 16 16 15 14 14 15 16 15 15 15
16 15 15 14 13 12 11 10 10 9 9 8 7 7 6 6 5 5 5 5 5 5 5 5 5 5 5 6 7 7 7 8 8 9 9 9 8 7 7 7 7 7 7 8 9 10 10 11 12 12 12 12 12 12 12 13 13 13 13 12 12 11 11 11 12 12 13 13 13 13 13 14 14 14 14 15 15 15 14 13 13 14 15 16 15 15
Wind_Direction
270 269 266 261 254 248 245 241 241 243 247 251 256 262 266 268 267 265 262 259 257 256 256 256 256 255 257 260 267 273 278 280 281 281 282 282 281 278 272 265 258 252 247 245 244 245 246 247 248 249 251 252 253 254 256 257 259 260 261 262 263 264 264 264 265 266 268 270 273 276 280 283 286 287 286 285 282 278 274 269 265 261 257 252 248 245
269 267 262 256 249 245 245 245 246 250 254 259 263 266 269 269 266 264 261 258 256 254 253 252 251 252 254 261 267 273 276 278 279 280 280 280 279 275 269 263 256 250 246 244 244 245 248 251 252 254 255 255 255 256 256 257 258 259 261 262 264 265 266 267 268 270 271 272 275 277 279 281 282 282 280 278 276 273 270 267 263 259 255 251 247 243
269 266 260 255 251 248 250 254 258 262 266 268 268 268 268 266 264 261 258 255 253 250 248 246 246 249 254 262 269 273 276 278 278 279 279 278 275 271 266 260 254 249 246 245 246 249 252 255 258 259 259 259 259 259 258 259 260 261 262 263 265 267 268 269 270 271 272 273 274 275 276 277 277 276 275 273 271 269 268 266 263 259 256 252 248 244
264 262 257 254 253 254 258 261 263 265 267 268 267 267 266 264 262 259 255 251 248 245 242 240 242 247 255 263 269 273 276 277 277 277 276 274 271 266 261 256 252 250 249 249 251 254 258 261 264 265 265 264 263 262 261 261 261 262 263 264 266 267 268 269 269 270 270 271 272 272 272 272 272 271 270 269 268 267 266 265 262 259 256 253 250 246
256 255 252 248 248 250 254 256 257 259 261 262 262 262 263 262 259 255 250 245 241 238 236 236 240 246 255 262 267 271 273 274 274 273 272 269 265 260 256 253 251 251 252 254 256 260 263 267 269 270 270 268 266 265 263 262 262 262 263 263 264 265 266 266 267 267 267 268 268 268 269 269 269 268 267 266 265 264 264 264 262 260 257 254 251 247
252 249 247 244 244 244 247 249 251 253 255 257 257 258 259 259 256 250 243 238 234 232 232 234 239 246 254 260 264 268 270 271 271 269 267 262 257 253 250 249 250 252 255 257 260 264 268 271 273 274 273 271 269 267 265 263 262 261 261 262 262 263 263 264 264 265 265 266 266 267 267 267 267 266 265 263 261 261 261 261 261 260 258 255 252 248
251 249 247 245 243 243 245 248 250 251 253 256 257 257 257 255 250 244 237 233 230 229 230 233 239 246 253 258 262 264 266 267 267 265 260 255 250 247 245 247 250 254 258 262 265 269 272 275 276 276 275 273 270 268 265 263 261 260 260 260 260 261 261 263 263 264 265 265 266 266 266 265 264 263 261 260 258 257 257 258 259 259 258 256 253 249
255 254 253 252 251 251 251 251 252 252 252 254 255 255 253 250 245 239 233 230 228 228 229 234 242 249 253 257 260 261 262 262 261 258 253 248 244 242 243 247 252 258 262 267 271 274 276 278 278 277 275 273 269 266 263 261 259 259 258 259 259 259 261 261 262 263 264 265 265 265 264 263 261 260 258 256 255 254 254 254 254 255 255 255 253 250
260 260 259 259 258 256 255 254 254 252 251 249 249 251 250 246 241 235 231 228 227 227 230 236 245 252 256 259 259 259 258 257 254 250 245 241 239 240 243 249 256 262 267 271 274 277 279 280 279 277 274 271 267 263 260 258 257 256 256 257 257 258 259 259 260 261 262 262 263 262 261 260 258 256 254 253 251 250 250 250 250 251 252 252 252 250
261 262 262 262 261 258 256 255 255 253 250 246 245 246 248 245 239 233 229 227 227 228 232 239 246 253 259 260 259 256 254 251 247 243 240 238 239 241 246 253 259 265 270 273 276 278 280 279 278 275 272 267 263 259 256 254 253 253 254 254 254 255 255 255 256 257 258 258 259 258 257 256 254 252 251 249 248 247 246 246 246 247 248 250 251 250
259 261 261 261 261 260 257 255 254 253 250 244 240 239 240 240 237 232 230 229 230 232 236 242 249 255 258 259 256 252 247 244 241 238 237 237 240 244 251 257 263 267 271 274 276 277 278 277 275 272 269 265 260 256 252 251 251 251 251 251 251 251 251 251 252 252 253 253 253 253 252 251 250 248 247 246 245 244 244 243 244 244 246 247 248 249
257 257 259 260 261 260 257 252 250 249 246 241 237 236 236 234 232 230 229 231 235 238 243 249 253 256 256 254 251 247 241 236 234 234 235 238 242 248 255 261 265 268 271 273 274 275 275 274 272 269 266 263 258 254 250 249 249 249 249 249 248 248 247 247 247 247 247 248 248 248 247 246 246 245 244 244 243 242 242 241 242 242 243 244 246 247
258 257 256 257 258 258 255 248 242 241 241 239 237 235 234 233 230 228 228 231 237 243 248 253 255 255 252 248 243 238 234 231 231 232 235 240 246 252 258 263 266 268 269 270 271 272 271 270 269 267 265 261 257 253 249 248 248 248 247 246 246 245 244 243 243 243 243 244 244 244 243 243 243 242 241 241 240 240 239 239 239 240 241 242 244 245
258 255 252 250 251 253 252 245 241 240 241 240 239 239 238 235 231 228 227 230 236 242 247 250 251 250 246 240 235 232 229 228 230 233 237 243 249 256 261 263 266 267 267 268 269 269 269 268 267 265 262 259 256 253 250 249 248 247 246 245 244 242 242 241 241 241 241 240 240 240 240 239 239 238 237 236 236 236 236 236 236 237 238 239 241 243
258 253 248 245 245 247 248 245 241 241 241 241 241 239 238 234 231 228 228 230 235 240 243 244 244 242 239 234 230 227 226 228 231 235 240 246 252 257 260 261 263 264 265 265 266 267 267 266 265 263 260 257 255 253 251 250 249 247 246 244 243 242 241 240 239 238 238 237 236 236 235 234 234 233 232 231 231 231 231 231 232 233 234 236 238 240
257 253 249 247 245 245 246 244 240 238 239 239 238 236 234 232 230 229 229 232 236 239 240 238 236 233 231 230 228 227 227 229 233 238 242 247 252 256 258 258 258 259 261 261 262 264 264 263 261 259 256 254 252 252 251 251 250 248 246 244 242 241 240 238 237 236 234 233 232 231 230 229 229 228 227 226 226 226 227 228 229 230 231 233 235 237
254 253 251 249 247 245 245 242 238 235 235 235 233 232 231 231 231 231 231 233 236 237 237 235 231 226 224 225 226 228 230 232 237 242 244 247 250 254 255 254 253 254 256 257 258 259 258 257 256 253 252 251 250 250 250 250 248 247 245 243 241 239 237 235 234 232 230 228 227 226 226 225 225 224 225 224 225 225 225 226 227 228 230 231 233 235
253 251 251 250 248 246 242 237 233 232 231 230 229 229 229 229 229 230 232 233 234 234 233 233 231 228 226 225 227 232 235 237 240 244 246 246 248 250 252 251 251 251 253 254 254 253 252 251 249 247 247 247 247 248 247 247 246 244 242 239 236 234 233 233 231 230 228 225 225 223 223 224 224 224 225 225 226 227 228 228 229 230 231 231 232 234
252 250 248 247 247 245 239 232 228 227 226 225 226 226 227 226 226 228 229 231 231 231 230 228 227 228 230 232 234 238 241 242 243 245 245 245 246 248 248 249 249 250 250 250 249 248 246 245 244 243 243 244 244 245 246 245 245 243 239 235 231 229 228 229 228 227 225 223 223 223 224 225 226 228 229 230 231 232 233 233 234 235 234 234 234 234
247 246 243 242 241 238 232 226 224 223 221 221 222 224 225 225 225 226 227 228 227 226 225 224 224 225 228 232 236 240 243 244 243 243 243 243 244 245 246 247 248 248 248 246 245 243 241 240 239 239 240 241 242 244 244 245 245 243 238 232 226 224 224 225 225 224 224 224 225 226 228 230 231 234 236 238 240 240 240 240 241 240 240 239 239 237
241 239 237 234 232 230 225 220 216 214 214 214 216 219 221 222 223 224 224 224 223 221 220 219 222 226 229 231 234 238 241 242 241 240 241 242 242 243 245 246 246 246 244 242 239 237 236 235 235 235 236 238 239 241 243 245 244 243 237 230 225 223 223 223 223 223 224 225 227 230 233 237 239 242 244 246 248 249 248 248 247 246 246 245 243 242
238 234 229 225 222 219 215 209 205 203 204 206 210 214 216 218 219 221 221 221 220 219 219 219 222 227 232 233 235 238 240 240 238 238 240 240 240 241 242 243 243 242 239 236 234 232 231 231 231 231 232 235 237 239 242 243 242 240 236 229 225 223 224 224 225 226 227 229 230 233 236 240 245 248 251 254 256 256 257 255 253 251 250 249 248 247
234 229 222 218 214 209 204 198 196 196 196 199 202 206 209 213 216 218 218 218 218 219 220 223 226 230 233 234 235 236 237 237 237 236 237 238 238 237 238 239 238 236 233 231 228 228 227 226 226 227 229 232 234 236 238 239 238 236 233 228 225 225 225 227 229 231 233 235 235 236 237 239 243 247 252 256 259 261 261 260 259 255 252 250 249 249
225 224 221 216 212 207 202 199 196 195 195 196 197 200 203 206 209 210 212 214 216 218 221 224 227 229 230 231 232 232 232 233 233 232 232 234 234 233 232 233 232 231 228 225 224 223 222 222 222 225 228 231 233 234 235 235 235 233 231 228 227 228 229 231 234 236 239 241 242 243 242 242 242 243 246 249 253 256 259 261 260 258 255 252 250 248
218 218 218 217 214 210 207 205 202 200 199 199 199 199 201 203 206 208 210 212 214 217 219 221 223 224 226 227 228 227 227 227 227 227 228 228 228 228 227 228 227 225 223 221 220 220 219 220 222 225 228 233 235 236 236 236 236 235 234 232 232 233 235 237 239 241 244 246 248 248 248 248 247 247 247 248 249 251 254 257 258 259 258 257 254 251
214 215 216 216 216 214 212 210 209 208 206 205 205 206 207 209 210 212 213 214 215 216 217 218 219 222 224 225 225 224 222 222 222 222 223 223 223 223 223 224 223 221 219 218 218 217 218 220 223 226 231 235 237 239 240 240 241 242 242 242 242 242 243 245 247 248 250 251 252 252 252 252 252 252 253 254 255 255 255 255 256 258 259 259 259 257
216 216 216 216 216 216 214 213 212 212 212 212 212 213 214 215 215 214 213 214 216 216 216 217 218 220 221 222 222 222 220 218 218 218 218 218 219 220 220 222 222 219 217 217 217 218 221 223 225 227 231 235 240 242 244 246 248 250 252 252 252 253 253 254 256 256 257 257 257 256 256 255 255 256 258 260 261 262 261 259 258 257 258 259 259 259
219 219 219 218 218 217 216 215 215 215 215 215 215 216 216 217 216 216 216 217 218 218 217 218 219 219 220 220 221 219 217 216 215 214 214 214 215 216 217 220 221 219 217 217 218 220 223 226 228 230 232 235 240 243 247 250 253 256 259 260 260 260 261 262 262 262 262 261 261 260 260 260 260 260 262 264 266 266 266 265 263 261 259 258 257 257
221 221 220 219 218 217 216 215 214 215 215 215 215 214 214 214 214 214 216 217 217 216 216 218 219 219 219 219 218 217 215 213 210 210 210 211 211 210 213 217 219 219 218 219 221 223 227 230 233 235 236 238 241 245 249 252 256 260 263 264 264 264 264 265 265 264 264 264 263 262 262 262 263 264 265 267 268 269 269 269 268 267 264 261 258 256
221 220 219 218 217 216 214 213 213 213 213 213 212 211 211 210 209 208 211 213 214 214 215 216 217 217 217 216 215 215 214 210 207 206 207 209 208 208 210 213 216 218 219 221 225 229 232 234 237 240 242 243 245 248 252 255 258 261 264 266 266 265 266 265 265 264 264 263 263 263 263 263 264 265 267 269 270 270 271 271 271 270 269 266 263 259
215 215 214 214 214 212 212 211 211 210 210 209 208 208 208 207 207 207 208 211 212 213 215 216 216 216 215 214 215 216 214 208 205 204 205 207 207 207 209 211 214 217 221 222 226 231 234 234 237 242 245 247 249 252 255 258 261 263 265 266 267 267 266 265 264 264 263 263 263 263 263 264 265 267 268 269 270 271 271 272 272 272 271 269 268 265
209 207 207 208 208 209 209 209 208 207 206 205 204 204 205 206 207 208 210 210 211 212 214 215 215 215 214 214 216 217 214 208 205 205 205 206 207 207 209 210 213 217 222 222 225 229 232 233 235 240 245 248 251 254 257 260 262 264 265 266 267 267 265 264 264 263 263 262 263 263 263 264 265 267 268 270 270 271 271 272 272 273 272 271 270 269
205 203 202 203 204 204 205 205 204 204 203 203 203 203 204 205 207 208 210 210 210 211 212 212 213 213 213 213 214 213 210 207 207 206 207 208 208 209 210 211 214 218 222 225 227 229 232 234 236 239 244 247 251 254 257 260 262 264 264 265 265 265 264 263 263 263 263 263 263 264 264 265 266 267 268 269 270 270 271 271 272 272 272 272 271 270
204 203 202 201 202 202 202 202 201 201 201 201 202 203 204 205 207 209 210 210 210 209 209 209 210 211 212 213 212 211 210 209 208 209 210 211 212 213 213 215 217 220 224 228 231 234 236 238 240 241 243 247 251 254 257 260 262 264 265 265 265 264 264 264 264 264 265 265 265 265 265 266 267 268 269 270 270 270 270 270 271 271 272 272 271 270
204 203 202 202 202 201 201 201 200 200 200 201 202 203 204 206 207 208 209 209 209 208 207 207 208 209 210 211 212 213 213 212 212 213 215 216 217 218 219 220 221 223 226 230 233 236 239 241 244 244 245 247 250 254 257 260 263 265 265 266 266 266 266 266 266 267 268 268 267 267 267 268 268 269 269 270 270 269 269 269 269 270 270 270 270 269
203 202 201 201 201 200 200 200 199 199 199 199 201 203 204 205 206 207 208 208 208 207 207 207 208 209 209 209 210 211 213 213 214 216 218 220 220 221 223 224 225 226 229 232 234 237 240 243 246 249 251 252 253 255 257 259 262 264 265 266 268 268 269 269 270 270 270 270 270 270 270 270 270 269 269 269 268 268 267 267 268 268 269 270 269 269
202 201 200 200 199 199 198 197 196 196 196 196 198 201 203 205 206 207 207 207 207 207 207 208 209 211 212 211 210 210 211 212 214 217 220 221 222 224 226 228 228 229 231 235 237 239 242 245 249 252 255 257 258 259 259 259 261 262 264 266 268 270 271 271 272 272 272 273 273 273 273 272 271 270 268 267 266 265 265 265 266 267 268 268 269 268
202 200 199 198 197 196 195 193 192 191 192 192 194 196 200 202 204 206 206 207 206 207 207 209 211 213 214 214 214 214 214 214 216 218 221 223 224 226 229 231 233 234 235 238 241 244 246 248 250 251 253 256 259 260 260 260 261 262 264 267 270 272 272 273 273 274 274 275 275 275 274 273 272 270 268 266 264 263 262 263 264 265 266 267 268 267
201 199 198 196 195 193 192 190 189 189 189 190 191 193 195 198 200 202 203 204 205 206 207 209 212 215 216 218 218 218 218 219 219 221 223 225 227 229 232 235 238 239 241 242 245 248 250 252 253 253 252 252 253 255 257 259 261 264 267 271 273 274 275 275 275 276 276 277 277 277 276 275 273 271 269 266 263 261 261 261 263 264 265 266 267 267
200 198 196 194 193 192 191 189 188 188 188 188 189 190 191 192 194 195 197 198 200 201 204 206 210 214 217 219 221 222 222 222 224 225 227 229 231 233 236 239 242 244 246 247 249 251 253 255 256 257 257 256 255 254 254 257 260 265 269 271 272 273 275 277 277 278 279 279 279 278 277 275 274 272 269 266 263 261 260 261 262 263 264 265 266 266
199 197 194 193 192 190 189 188 187 186 186 186 186 186 186 187 188 189 191 193 194 196 198 202 206 211 216 220 223 225 226 227 228 229 231 232 234 236 239 242 245 248 250 252 253 254 256 258 260 261 262 262 262 261 261 261 262 266 269 270 270 271 273 275 276 278 279 279 279 278 277 276 274 272 270 267 265 262 261 261 262 263 264 264 264 264
196 194 192 191 190 188 187 186 185 184 184 184 184 185 185 186 186 186 186 188 191 193 196 200 204 209 215 222 226 229 231 232 233 234 235 236 237 238 240 243 246 249 252 254 256 257 258 259 261 263 264 265 266 267 268 268 269 271 272 273 273 272 272 273 274 275 276 277 277 276 275 275 273 272 270 268 266 264 262 262 262 263 264 264 264 263
193 191 189 189 188 187 186 185 184 184 184 184 185 185 185 186 187 188 189 190 192 195 197 200 205 210 216 222 228 232 236 238 239 240 241 241 241 242 242 244 246 248 251 253 256 257 257 258 259 260 261 263 265 267 270 272 274 276 275 274 274 275 273 273 273 274 273 273 273 273 273 272 272 271 270 269 267 265 263 263 262 263 263 264 263 263
190 188 187 187 187 186 185 185 185 185 185 186 186 186 186 186 188 190 192 194 195 196 197 201 206 212 219 225 230 235 239 242 245 247 247 248 248 247 248 247 248 249 250 251 252 254 255 255 256 257 259 262 265 268 273 277 279 279 277 276 275 274 272 272 273 273 273 272 271 271 270 270 270 269 269 268 266 265 264 263 263 263 263 263 263 262
189 188 187 187 187 186 186 186 185 185 185 185 185 185 184 185 187 189 191 193 195 197 198 202 209 217 224 230 235 239 243 246 249 252 254 254 254 254 253 252 251 250 250 250 250 252 253 255 256 258 261 265 270 275 281 285 286 284 281 279 277 276 274 273 273 272 270 270 270 269 269 269 269 268 267 266 265 264 263 263 263 263 262 262 262 261
187 186 186 186 186 186 186 186 185 185 185 184 183 182 182 183 185 186 188 191 195 198 199 205 213 222 229 236 242 247 249 251 253 255 257 258 258 258 257 255 253 251 250 249 249 251 253 256 260 264 268 273 278 283 288 289 289 288 284 281 278 277 276 274 272 270 269 268 268 268 269 269 268 267 266 265 264 264 264 263 263 263 262 262 261 261
187 186 186 187 187 187 186 186 185 185 185 184 182 180 179 180 183 185 186 190 195 200 205 213 221 228 234 241 248 253 257 258 259 259 259 259 258 258 257 255 254 252 249 248 248 250 253 257 263 270 276 281 285 289 290 289 287 285 283 281 280 278 277 275 272 270 268 267 267 267 269 268 267 266 265 265 265 266 266 266 265 264 263 262 261 259
187 187 187 187 188 188 187 186 185 185 185 185 183 180 179 181 183 185 190 195 202 209 215 219 226 232 239 245 250 254 259 262 263 263 261 258 256 255 253 251 249 248 247 247 248 250 255 261 268 274 280 285 288 290 290 288 286 283 281 280 280 279 277 274 270 268 268 267 267 267 267 266 266 265 266 266 266 267 268 268 267 266 264 262 260 259
189 188 188 188 189 188 188 187 187 187 188 189 189 188 185 187 189 193 199 204 209 215 218 221 226 233 239 244 249 253 256 259 260 260 258 255 252 249 248 246 245 244 246 250 253 258 264 269 274 280 285 288 291 291 291 289 286 284 282 282 281 280 277 272 269 267 266 267 267 266 266 265 265 265 266 266 266 267 268 269 269 268 265 263 260 258
192 191 190 190 190 189 189 188 189 190 192 194 196 198 197 198 200 204 208 212 217 219 222 224 228 234 239 243 247 250 251 252 253 253 252 250 247 245 244 243 245 249 255 261 267 273 278 282 285 288 290 293 293 293 292 291 289 287 286 285 283 281 277 272 269 267 267 267 267 266 266 265 264 264 264 265 265 266 267 269 270 269 266 263 261 259
195 194 193 192 192 191 191 192 193 195 197 200 204 206 208 210 211 215 218 222 225 227 229 232 235 238 241 245 248 249 249 248 248 248 249 249 248 246 247 248 252 258 266 274 280 285 289 292 294 294 294 293 292 292 290 290 289 289 288 287 285 283 280 276 272 270 269 268 268 267 266 264 263 263 262 263 263 264 265 266 268 268 267 265 263 261